Simultaneous Nadir Overpasses (SNOs) Predictions

Prediction of SNOs between NOAA-20 and AQUA Satellite Orbit:

Table of predicted SNOs for the next 14.0 days since TLE Epoch: 9/4/2020
Index Date (NOAA-20) Time (NOAA-20) Lat,Lon (NOAA-20) SZA (NOAA-20 ) Date (AQUA) Time (AQUA) Lat,Lon (AQUA) SZA (AQUA ) Distance(km) Time Diff (sec)
1 09/06/2020 22:12:47 75.55, 84.26 91.80 09/06/2020 22:13:40 75.56, 84.35 91.73 2.66 53
2 09/06/2020 23:03:03 -76.90,-103.62 89.85 09/06/2020 23:02:40 -76.89,-103.71 89.81 2.34 23
3 09/09/2020 14:29:30 76.03,-158.40 92.16 09/09/2020 14:29:59 76.03,-158.35 92.13 1.33 29
4 09/09/2020 15:19:57 -76.88, 12.04 88.87 09/09/2020 15:19:09 -76.88, 12.13 88.85 2.41 48
5 09/12/2020 06:46:14 76.45, -41.13 92.60 09/12/2020 06:46:19 76.45, -41.14 92.60 0.41 5
6 09/12/2020 07:36:42 -77.24, 129.32 88.38 09/12/2020 07:35:30 -77.24, 129.35 88.33 0.79 72
7 09/14/2020 22:12:39 -75.74, -95.13 85.60 09/14/2020 22:13:37 -75.74, -95.13 85.65 0.07 58
8 09/14/2020 23:02:57 76.90, 76.40 92.99 09/14/2020 23:02:38 76.90, 76.31 93.03 2.49 19
9 09/17/2020 14:29:21 -76.21, 22.23 85.20 09/17/2020 14:29:55 -76.20, 22.16 85.22 1.97 34
